Location: Csohesd
(46.2500°N, 22.6167°E)
Time: 04:44:09
(UTC+00:00)

CENTAUR R/B - Pass Details

Date: 21 October 2021
Orbit: 728 x 1459 km, 63.4° (Epoch: 26 November)

Event Time Altitude Azimuth Distance (km) Brightness Sun altitude
Rises 18:36:16 0° 316° (NW) 3,981 6.6 -32.2°
Reaches altitude 10° 18:39:13 10° 327° (NNW) 3,131 5.7 -32.6°
Enters shadow 18:45:52 32° 27° (NNE) 2,110 4.1 -33.7°
